sat.trackr.live / text

‹ back to catalog

ZHEDA PIXING 1C

NORAD 37167 · 2010-047C

PAYLOAD ACTIVE UNKNOWN

§ Identity

Operator
Country
PRC
Launch date
2010-09-22
Launch site
JSC
Launch vehicle
Mass (kg)
RCS (m²)
0.15

External: N2YO · Heavens-Above · Gunter

§ Orbital elements

Epoch: 2026-09-20T04:20:27.662208Z

Period
96.57 min
Inclination
97.9891°
Eccentricity
0.0018455
Mean motion
14.91211871 rev/d
Perigee alt
581.3 km
Apogee alt
607.0 km
Semi-major
6,972.3 km
B*
1.7427e-4
RAAN
245.8907°
Arg perigee
339.4795°
Mean anomaly
20.5679°
Rev number
86,458

§ Raw data

ZHEDA PIXING 1C1 37167U 10047C   26263.18087572  .00001678  00000+0  17427-3 0  99982 37167  97.9891 245.8907 0018455 339.4795  20.5679 14.91211871864582

JSON: /api/v1/satellites/37167 · /tle

For live sub-satellite position, see the globe view (requires WebGL).

§ Visibility from observer

Set your observer location to see the next 7 days of passes ≥ 10°. The values pass through the URL so the page stays shareable.

No JS? Fill the form by hand. The geolocation button needs JavaScript.

§ Radio — SatNOGS DB

ModeDescriptionDownlinkUplink
FM S-band telemetry 2.285 GHz

1 transmitter · refreshed weekly from db.satnogs.org